星链-3227 (STARLINK-3227 )

导读 | 豆包AI

STARLINK-3227是美国SpaceX公司星链星座的一员,于2021年12月2日发射入轨。星链项目计划部署数万颗低轨卫星,旨在为全球提供高速低延迟互联网服务,尤其覆盖地面基础设施难以到达的偏远区域。作为巨型星座的组成部分,该卫星运行于近地轨道,助力实现全球宽带网络覆盖,同时也因太空拥堵、天文观测干扰等问题引发行业讨论。

基本信息
目录编号:
49765
目录名称:
STARLINK-3227
国际标识:
2021-115AT
轨道中心:
EARTH
卫星名称:
星链-3227
卫星全名:
星链-3227 (STARLINK-3227 )
卫星状态:
在轨 (已飞行1611 天)
发射日期:
2021-12-02 UTC
国别 :
美国 (US)
星等 :
--
轨道信息
数据来源 国际轨道数据 AOE轨道数据
星历时间 2026-05-01T04:05:51+0800
8小时前
查看轨道信息
2026-04-30T09:00:00+0800
1天前
查看轨道信息
半长轴 6917.896km 6917.923km
偏心率 0.0001026 0.0000863
轨道倾角 53.217° 53.219°
近地点辐角 98.242° 19.113°
升交点赤经 265.032° 268.607°
平近点角 261.869° 336.339°
近地点 539.049km 539.188km
远地点 540.469km 540.384km
周期 95.438分钟 95.438分钟
每日圈数 15.08835 15.088262
详细信息
固有亮度:
5
最大亮度:
2.5
卫星平台:
Starlink v1.5
覆盖范围:
全球
运营商:
太空探索技术公司
运营商所在国:
美国
制造商(研发单位):
太空探索技术公司
制造商所在国:
美国
使用方式:
暂无
卫星简介
星链(Starlink)计划是由太空探索技术公司(SpaceX)提出的一个巨型低轨卫星互联网星座项目,计划在2019年至2024年间在太空搭建由约1.2万颗卫星组成的“星链”网络,其中1584颗将部署在地球上空550千米处的近地轨道,并从2020年开始工作。该卫星仍在工作。
2D轨道图
3D轨道图
轨道高度分析图
轨道倾角分析图
轨道综合分析图
查看轨道综合分析图